Miscellaneous Local Product
Issued by NWS North Platte, NE

Home | Current Version | Previous Version | Text Only | Print | Product List | Glossary On
Versions: 1 2 3 4 5 6 7 8 9 10 11 12 13 14 15 16 17 18 19 20 21 22 23 24 25 26 27 28 29 30 31 32 33 34 35 36 37 38 39 40 41 42 43 44 45 46 47 48 49 50
000
AXUS43 KLBF 250810
MISLBF


WESTERN AND NORTH CENTRAL NEBRASKA HOURLY WEATHER ROUNDUP
NATIONAL WEATHER SERVICE NORTH PLATTE NE
300 AM CDT SUN SEP 25 2016

NOTE: "FAIR" INDICATES FEW OR NO CLOUDS BELOW 12,000 FEET WITH NO
SIGNIFICANT WEATHER AND/OR OBSTRUCTIONS TO VISIBILITY.

NOTE: STATIONS NOT REPORTING VARIABLES SUCH AS SKY/WEATHER OR
PRESSURE ARE PROVIDED BY RAWS AND APRS NETWORKS AND ARE NOT UNDER
NATIONAL WEATHER SERVICE QUALITY CONTROL.

...OBSERVATIONS IN AND NEAR THE EASTERN PANHANDLE OF NEBRASKA...

CITY           SKY/WX    TMP DP  RH WIND       PRES   REMARKS
PINE RIDGE     PTCLDY    51  43  74 W15G26    30.17R
CHADRON        CLOUDY    52  41  66 W18G26    30.23R
ALLIANCE       CLEAR     43  39  86 W10       30.23R
SIDNEY         CLOUDY    48  39  71 NW16      30.27R
CRESCENT LAKE    N/A     48  40  75 NW9G16      N/A
$$

...OBSERVATIONS IN NORTHERN NEBRASKA AND FAR SOUTHERN SOUTH DAKOTA...

CITY           SKY/WX    TMP DP  RH WIND       PRES   REMARKS
WINNER         MOCLDY    57  44  62 W18G28    30.03R
VALENTINE      CLEAR     51  40  65 NW8       30.11R
THEDFORD       CLEAR     53  43  68 NW10G16   30.15R
AINSWORTH      CLEAR     53  43  69 W13G20    30.10R
O`NEILL        CLEAR     55  41  59 W13       30.06R
ORD            CLEAR     57  40  52 NW18G28   30.08R
BROKEN BOW     CLEAR     55  42  61 NW13G22   30.12R
VALENTINE NWR    N/A     52  40  64 W12G18      N/A
BUTTE            N/A     53  42  67 SW10G17     N/A
HALSEY           N/A     55  41  60 W13G21      N/A
EWING            N/A     56  46  68 W12         N/A
$$

...OBSERVATIONS IN SOUTHWEST NEBRASKA AND FAR NORTHEAST COLORADO...

CITY           SKY/WX    TMP DP  RH WIND       PRES   REMARKS
WRAY           FAIR      46  37  71 W5        30.27R
HOLYOKE        FAIR      52  41  66 W5        30.27R
IMPERIAL       CLEAR     52  40  63 NW14      30.23R
OGALLALA       CLEAR     52  41  68 W7        30.22R
NORTH PLATTE   CLEAR     54  43  66 NW12      30.18R
MCCOOK         CLEAR     50  42  74 W8        30.18R
LEXINGTON      CLEAR     50  42  76 W8        30.15R
STAPLETON        N/A     50  42  73 CALM        N/A
GOTHENBURG       N/A     52  40  63 NW3         N/A
CALLAWAY         N/A     51  43  74 NW9         N/A
$$

...OBSERVATIONS IN CENTRAL LINCOLN COUNTY AREA...

CITY           SKY/WX    TMP DP  RH WIND       PRES   REMARKS
N.P. AIRPORT   CLEAR     54  43  66 NW12      30.18R
N.P. DOWNTOWN    N/A     54  43  67 W5G12       N/A
N.P. SOUTHEAST   N/A     54  42  64 CALM        N/A
N.P. HILLCREST   N/A     53  43  68 NW15        N/A
$$

...SOME OBSERVATIONS FROM AROUND THE REGION...

CITY           SKY/WX    TMP DP  RH WIND       PRES   REMARKS
DENVER         CLOUDY    43  31  62 SE6       30.35R
LARAMIE        CLEAR     33  30  88 W7        30.40R WCI  27
CHEYENNE       CLEAR     44  33  65 NW15G23   30.35R
SCOTTSBLUFF    CLEAR     46  39  76 NW8       30.27R
RAPID CITY     CLOUDY    54  40  59 NW25G37   30.13R
BISMARCK       CLOUDY    53  51  93 W13       29.78R
PIERRE         CLOUDY    57  46  66 W28G39    29.92R
SIOUX FALLS    MOCLDY    58  48  69 W10       29.96R
OMAHA          LGT RAIN  69  65  86 N5        29.96F
GRAND ISLAND   PTCLDY    55  45  68 NW12      30.08R
KANSAS CITY    LGT RAIN  68  65  90 SW8       30.02F
WICHITA        TSTM      67  67 100 SE3       30.03F FOG
OKLAHOMA CITY  RAIN      68  67  96 S8        30.02R
DALLAS         CLOUDY    77  71  82 S7        29.97R
AMARILLO       FOG       62  61  96 SE7       30.09R VSB 1/4
DODGE CITY     FOG       62  61  96 CALM      30.09R VSB<1/4
HAYS           MOCLDY    61  54  77 N15G22    30.10R
GOODLAND       CLEAR     48  41  76 NW12      30.25R
$$




USA.gov is the U.S. government's official web portal to all federal, state and local government web resources and services.